TimeCDT,TemperatureF,Dew PointF,Humidity,Sea Level PressureIn,VisibilityMPH,Wind Direction,Wind SpeedMPH,Gust SpeedMPH,PrecipitationIn,Events,Conditions,WindDirDegrees,DateUTC
12:53 AM,53.1,50.0,89,29.94,10.0,Calm,Calm,-,N/A,,Clear,0,2012-10-03 05:53:00
1:53 AM,54.0,50.0,86,29.95,10.0,Calm,Calm,-,N/A,,Clear,0,2012-10-03 06:53:00
2:53 AM,55.0,51.1,86,29.96,10.0,Calm,Calm,-,N/A,,Clear,0,2012-10-03 07:53:00
3:53 AM,55.0,51.1,86,29.95,10.0,Calm,Calm,-,N/A,,Partly Cloudy,0,2012-10-03 08:53:00
4:53 AM,52.0,48.9,89,29.97,10.0,Calm,Calm,-,N/A,,Clear,0,2012-10-03 09:53:00
5:53 AM,54.0,48.9,83,30.00,10.0,Calm,Calm,-,N/A,,Clear,0,2012-10-03 10:53:00
6:53 AM,55.0,50.0,83,30.01,10.0,Calm,Calm,-,N/A,,Clear,0,2012-10-03 11:53:00
7:53 AM,55.9,50.0,80,30.02,10.0,Calm,Calm,-,N/A,,Unknown,0,2012-10-03 12:53:00
8:53 AM,60.1,52.0,75,30.03,10.0,Calm,Calm,-,N/A,,Clear,0,2012-10-03 13:53:00
9:53 AM,64.9,54.0,68,30.04,10.0,Calm,Calm,-,N/A,,Clear,0,2012-10-03 14:53:00
10:27 AM,71.6,53.6,53,30.04,10.0,SW,12.7,17.3,N/A,,Partly Cloudy,230,2012-10-03 15:27:00
10:53 AM,73.0,54.0,51,30.04,10.0,SSW,13.8,-,N/A,,Clear,200,2012-10-03 15:53:00
11:53 AM,75.9,54.0,46,30.04,10.0,SSW,10.4,19.6,N/A,,Clear,210,2012-10-03 16:53:00
12:53 PM,78.1,53.1,42,30.03,10.0,WSW,15.0,21.9,N/A,,Clear,240,2012-10-03 17:53:00
1:53 PM,79.0,53.1,40,30.01,10.0,SSW,15.0,-,N/A,,Scattered Clouds,210,2012-10-03 18:53:00
2:53 PM,78.1,53.1,42,30.00,10.0,SW,12.7,-,N/A,,Scattered Clouds,220,2012-10-03 19:53:00
3:53 PM,79.0,52.0,39,30.00,10.0,SW,9.2,-,N/A,,Partly Cloudy,220,2012-10-03 20:53:00
4:53 PM,77.0,53.1,43,30.01,10.0,SW,8.1,-,N/A,,Clear,230,2012-10-03 21:53:00
5:53 PM,77.0,53.1,43,30.01,10.0,SSW,9.2,-,N/A,,Clear,210,2012-10-03 22:53:00
6:53 PM,72.0,54.0,53,30.03,10.0,SW,5.8,-,N/A,,Partly Cloudy,220,2012-10-03 23:53:00
7:53 PM,69.1,55.0,61,30.05,10.0,South,3.5,-,N/A,,Clear,190,2012-10-04 00:53:00
8:53 PM,66.9,55.0,66,30.07,10.0,Calm,Calm,-,N/A,,Clear,0,2012-10-04 01:53:00
9:53 PM,62.1,55.0,78,30.08,10.0,Calm,Calm,-,N/A,,Clear,0,2012-10-04 02:53:00
10:53 PM,59.0,55.0,87,30.11,10.0,Calm,Calm,-,N/A,,Clear,0,2012-10-04 03:53:00
11:53 PM,59.0,54.0,83,30.11,10.0,Calm,Calm,-,N/A,,Clear,0,2012-10-04 04:53:00